Lid_Strength_Index
10 10 10 10 9 8 7 6 5 4 4 4 4 3 3 4 4 5 6 6 6 6 6 5 6 7 8 8 8 9 8 7 6 10 11 12 13 14 14 14 13 14 12
11 10 10 10 10 9 9 8 8 8 7 7 6 6 5 5 6 6 6 5 6 6 7 7 8 8 9 9 9 10 10 10 7 11 12 14 14 14 14 15 14 13 13
11 11 11 11 10 10 10 10 10 10 9 8 9 8 8 8 8 8 6 6 6 7 7 7 8 9 10 11 11 11 12 11 11 11 14 13 13 14 15 15 14 14 14
11 11 12 11 11 11 11 11 11 10 10 10 9 9 9 8 8 8 8 8 8 7 8 8 9 9 11 12 12 12 13 12 12 13 13 14 14 15 15 15 16 16 15
11 11 11 11 11 11 12 12 12 12 11 10 11 10 9 9 9 10 10 9 10 10 11 10 10 11 11 12 12 13 13 13 13 14 15 14 15 16 16 16 16 16 15
12 12 12 12 12 13 12 12 12 12 12 12 12 12 12 11 9 9 9 10 11 12 12 12 13 14 12 11 11 11 11 12 13 13 14 15 15 15 16 16 16 17 17
13 13 13 13 13 13 13 14 14 13 13 13 12 12 13 12 10 10 10 11 12 12 12 13 14 14 14 14 12 12 13 12 11 13 14 14 16 15 16 16 16 16 16
14 14 14 14 14 13 13 14 14 14 14 14 14 13 14 13 11 11 11 12 13 13 13 14 14 15 14 14 14 15 15 15 15 15 14 15 15 15 15 15 16 16 16
14 14 14 14 14 13 13 14 13 14 13 14 13 14 14 14 11 10 11 13 14 14 14 14 14 14 13 12 14 15 16 16 14 13 14 14 14 14 15 16 17 18 18
14 14 14 14 14 14 14 13 13 13 13 13 13 13 13 13 11 10 10 13 14 14 14 13 13 13 12 11 14 15 16 17 16 16 15 15 15 15 14 15 16 17 19
15 15 14 14 14 14 14 14 13 14 13 14 14 13 13 13 13 10 9 12 12 13 14 14 13 11 11 11 12 15 15 16 15 17 17 17 18 18 17 17 16 16 18
16 16 16 15 14 14 14 14 14 14 14 14 15 14 14 13 12 10 9 8 10 12 13 13 13 11 11 10 11 13 13 15 17 18 19 19 18 18 18 18 18 18 18
17 18 17 16 14 14 14 14 15 15 15 14 14 13 13 13 12 9 8 7 8 11 12 13 12 11 10 11 10 12 13 17 18 19 20 19 19 18 18 19 19 20 20
19 18 17 17 16 16 15 14 15 16 16 14 14 14 14 15 14 12 10 10 8 9 11 12 12 12 11 12 13 12 17 17 18 19 19 18 19 20 21 20 21 21 21
19 19 18 17 18 17 16 16 15 14 14 14 14 14 14 14 14 11 11 11 10 10 15 15 13 13 13 15 15 18 18 18 18 18 19 20 21 21 21 20 20 21 22
21 20 20 19 19 18 18 17 14 13 12 11 11 11 11 10 9 9 9 9 8 8 12 15 14 13 14 16 17 19 19 19 19 18 19 20 21 21 21 21 21 23 23
23 21 21 21 20 20 19 19 19 16 13 13 12 11 10 10 10 9 9 9 9 8 11 14 14 14 14 15 16 18 19 19 19 19 20 20 20 21 22 22 22 22 23
25 24 23 22 21 20 20 18 18 19 19 18 14 13 12 10 10 10 9 10 11 10 10 14 14 13 14 15 16 18 18 19 19 19 20 20 21 21 22 23 23 23 23
25 24 23 22 22 21 20 19 20 20 19 18 17 15 15 12 11 10 9 12 13 12 11 13 13 13 14 15 15 16 18 19 19 20 20 21 21 22 23 23 22 23 23
26 25 24 23 22 22 21 20 20 19 19 18 18 17 17 17 15 14 13 13 13 12 12 15 15 13 14 15 16 17 18 19 20 21 21 21 22 22 23 23 23 24 25
27 26 25 24 23 23 22 21 20 20 19 19 18 17 14 15 15 15 14 13 13 13 12 14 15 14 14 15 17 18 19 20 20 21 22 22 22 23 23 23 23 24 25
29 26 26 25 24 23 22 21 21 20 20 19 18 17 14 16 16 15 14 13 12 12 11 14 15 15 15 16 17 18 19 20 21 21 22 22 23 24 23 23 24 25 26
28 27 25 24 24 23 22 22 21 21 20 19 19 18 18 17 17 16 16 16 17 16 16 15 16 16 16 16 17 18 20 20 21 21 22 23 23 23 23 24 24 25 25
30 28 27 25 24 23 23 23 22 21 20 20 19 19 19 18 17 17 16 16 18 17 17 16 16 16 17 18 18 19 19 19 20 21 21 22 23 23 23 24 24 24 25
29 27 26 25 24 24 23 23 22 21 20 20 20 19 19 18 18 18 17 16 18 18 18 18 17 17 18 19 19 20 20 19 21 21 21 22 22 23 24 24 24 25 27
28 26 25 24 24 23 23 22 22 21 21 20 20 19 19 19 19 18 18 17 18 17 18 18 18 18 19 19 20 20 20 19 22 22 21 22 23 23 23 24 25 25 27